Location: Centre High School
(34.7548°N, 88.8926°W)
Time: 14:37:20
(UTC+00:00)

Daily predictions for brighter satellites

Satellite Brightness Start Highest point End
(mag) Time Altitude Azimuth Time Altitude Azimuth Time Altitude Azimuth
H-2A R/B 2.6 12:03:02 10° N 12:06:46 88° WNW 12:10:27 10° SSW
Aurora 2 Rocket 4.4 12:08:11 10° WSW 12:11:44 19° SSW 12:14:39 10° SSE
BREEZE M DEB (TANK) 4.3 12:09:39 10° WNW 12:14:32 19° WSW 12:17:05 10° SSW
ATLAS 2AS CENTAUR R/B 4.3 12:07:58 10° NNW 12:14:42 35° NE 12:20:55 10° ESE
